UAL1006 KLAX-KLAS

Flight info

Callsign UAL1006
Flight time 0h 43m
Altitude 29000
Route ORCKA5 MISEN RNDRZ4
Aircraft B738/M-SDE2E3FGHIRWXY/LB1

Departure

Time 2026-05-05 18:29
Airport Los Angeles International Airport (KLAX)

Arrival

Time 2026-05-05 19:12
Airport Harry Reid International Airport (KLAS)
Time Latitude Longitude Altitude Speed Heading
2026-05-05 17:46 33.94004 -118.40233 92 ft 0 kts 33°
2026-05-05 18:10 33.93987 -118.40247 91 ft 4 kts 33°
2026-05-05 18:11 33.93968 -118.40262 92 ft 2 kts 34°
2026-05-05 18:11 33.93948 -118.40281 93 ft 4 kts 48°
2026-05-05 18:11 33.93933 -118.40307 93 ft 4 kts 70°
2026-05-05 18:11 33.93928 -118.40334 91 ft 4 kts 83°
2026-05-05 18:12 33.93926 -118.40351 91 ft 0 kts 83°
2026-05-05 18:16 33.93927 -118.40328 92 ft 6 kts 94°
2026-05-05 18:16 33.93899 -118.40293 94 ft 6 kts 158°
2026-05-05 18:16 33.93857 -118.40301 96 ft 9 kts 219°
2026-05-05 18:17 33.93838 -118.40376 97 ft 10 kts 263°
2026-05-05 18:17 33.93832 -118.40455 94 ft 9 kts 264°
2026-05-05 18:17 33.93824 -118.40532 96 ft 9 kts 262°
2026-05-05 18:17 33.93816 -118.40607 93 ft 10 kts 263°
2026-05-05 18:18 33.93807 -118.40700 93 ft 11 kts 263°
2026-05-05 18:18 33.93797 -118.40793 94 ft 11 kts 263°
2026-05-05 18:18 33.93788 -118.40884 93 ft 11 kts 263°
2026-05-05 18:18 33.93778 -118.40980 92 ft 15 kts 263°
2026-05-05 18:19 33.93765 -118.41105 96 ft 13 kts 266°
2026-05-05 18:19 33.93788 -118.41167 95 ft 8 kts 334°
2026-05-05 18:19 33.93828 -118.41211 92 ft 10 kts 298°
2026-05-05 18:19 33.93892 -118.41265 93 ft 12 kts 350°
2026-05-05 18:20 33.93975 -118.41279 92 ft 12 kts 352°
2026-05-05 18:20 33.94071 -118.41294 92 ft 16 kts 352°
2026-05-05 18:20 33.94183 -118.41312 94 ft 16 kts 352°
2026-05-05 18:20 33.94291 -118.41326 93 ft 15 kts 354°
2026-05-05 18:21 33.94395 -118.41341 93 ft 15 kts 353°
2026-05-05 18:21 33.94494 -118.41355 92 ft 14 kts 353°
2026-05-05 18:21 33.94589 -118.41369 92 ft 13 kts 353°
2026-05-05 18:21 33.94669 -118.41381 94 ft 11 kts 353°
2026-05-05 18:22 33.94755 -118.41386 93 ft 14 kts 18°
2026-05-05 18:22 33.94795 -118.41285 93 ft 14 kts 84°
2026-05-05 18:22 33.94805 -118.41172 94 ft 13 kts 83°
2026-05-05 18:22 33.94817 -118.41063 96 ft 13 kts 83°
2026-05-05 18:23 33.94826 -118.40957 96 ft 13 kts 83°
2026-05-05 18:23 33.94836 -118.40854 94 ft 12 kts 83°
2026-05-05 18:23 33.94847 -118.40754 96 ft 12 kts 82°
2026-05-05 18:23 33.94858 -118.40656 93 ft 12 kts 82°
2026-05-05 18:24 33.94868 -118.40561 93 ft 11 kts 83°
2026-05-05 18:24 33.94879 -118.40452 96 ft 17 kts 83°
2026-05-05 18:24 33.94894 -118.40311 93 ft 17 kts 83°
2026-05-05 18:24 33.94907 -118.40174 95 ft 16 kts 83°
2026-05-05 18:25 33.94920 -118.40043 92 ft 15 kts 83°
2026-05-05 18:25 33.94930 -118.39967 92 ft 9 kts 75°
2026-05-05 18:25 33.94957 -118.39925 94 ft 0 kts 30°
2026-05-05 18:27 33.94958 -118.39924 94 ft 2 kts 30°
2026-05-05 18:27 33.95013 -118.39921 94 ft 10 kts 343°
2026-05-05 18:28 33.95020 -118.40166 98 ft 52 kts 263°
2026-05-05 18:28 33.94942 -118.40923 96 ft 124 kts 263°
2026-05-05 18:28 33.94816 -118.42140 211 ft 164 kts 262°
2026-05-05 18:29 33.94674 -118.43650 934 ft 189 kts 263°
2026-05-05 18:29 33.94543 -118.45214 2111 ft 200 kts 263°
2026-05-05 18:29 33.94306 -118.46991 2477 ft 231 kts 251°
2026-05-05 18:29 33.93394 -118.48691 2881 ft 253 kts 222°
2026-05-05 18:30 33.91834 -118.49656 3771 ft 257 kts 193°
2026-05-05 18:30 33.90035 -118.49546 4487 ft 267 kts 160°
2026-05-05 18:30 33.88515 -118.48276 5244 ft 271 kts 128°
2026-05-05 18:30 33.87791 -118.46200 6003 ft 273 kts 92°
2026-05-05 18:31 33.88151 -118.44006 6788 ft 269 kts 57°
2026-05-05 18:31 33.89449 -118.42433 7433 ft 271 kts 26°
2026-05-05 18:31 33.91235 -118.41716 8217 ft 272 kts 16°
2026-05-05 18:31 33.92968 -118.40835 9070 ft 278 kts 27°
2026-05-05 18:32 33.94620 -118.39498 9846 ft 286 kts 37°
2026-05-05 18:32 33.96064 -118.37856 10383 ft 297 kts 46°
2026-05-05 18:32 33.97460 -118.35827 10594 ft 323 kts 51°
2026-05-05 18:32 33.98763 -118.33548 10803 ft 349 kts 55°
2026-05-05 18:33 34.00263 -118.31075 10941 ft 371 kts 50°
2026-05-05 18:33 34.01809 -118.28527 11331 ft 382 kts 53°
2026-05-05 18:33 34.03273 -118.25888 11903 ft 386 kts 55°
2026-05-05 18:33 34.04750 -118.23188 12609 ft 387 kts 55°
2026-05-05 18:34 34.06249 -118.20472 13188 ft 392 kts 55°
2026-05-05 18:34 34.07784 -118.17724 13775 ft 397 kts 55°
2026-05-05 18:34 34.09344 -118.14956 14434 ft 400 kts 54°
2026-05-05 18:34 34.10916 -118.12173 15113 ft 403 kts 55°
2026-05-05 18:35 34.12499 -118.09370 15745 ft 406 kts 54°
2026-05-05 18:35 34.14095 -118.06548 16369 ft 409 kts 54°
2026-05-05 18:35 34.15702 -118.03698 16980 ft 412 kts 53°
2026-05-05 18:35 34.17318 -118.00830 17583 ft 415 kts 54°
2026-05-05 18:36 34.18945 -117.97938 18194 ft 418 kts 55°
2026-05-05 18:36 34.20583 -117.95021 18708 ft 421 kts 53°
2026-05-05 18:36 34.22229 -117.92087 19231 ft 423 kts 54°
2026-05-05 18:36 34.23884 -117.89142 19789 ft 425 kts 55°
2026-05-05 18:37 34.25546 -117.86177 20301 ft 427 kts 54°
2026-05-05 18:37 34.27220 -117.83192 20812 ft 430 kts 54°
2026-05-05 18:37 34.28896 -117.80196 21287 ft 432 kts 54°
2026-05-05 18:37 34.30584 -117.77174 21765 ft 435 kts 54°
2026-05-05 18:38 34.32281 -117.74139 22256 ft 437 kts 55°
2026-05-05 18:38 34.33985 -117.71090 22728 ft 439 kts 54°
2026-05-05 18:38 34.35705 -117.68018 23136 ft 442 kts 54°
2026-05-05 18:38 34.37485 -117.64972 23582 ft 444 kts 53°
2026-05-05 18:39 34.39308 -117.61939 23956 ft 446 kts 52°
2026-05-05 18:39 34.41149 -117.58901 24295 ft 449 kts 53°
2026-05-05 18:39 34.42997 -117.55844 24662 ft 451 kts 53°
2026-05-05 18:39 34.44846 -117.52771 25014 ft 452 kts 52°
2026-05-05 18:40 34.46692 -117.49687 25491 ft 453 kts 52°
2026-05-05 18:40 34.48542 -117.46582 25759 ft 457 kts 53°
2026-05-05 18:40 34.50408 -117.43439 26004 ft 460 kts 53°
2026-05-05 18:40 34.52281 -117.40286 26346 ft 462 kts 52°
2026-05-05 18:41 34.54160 -117.37118 26689 ft 463 kts 53°
2026-05-05 18:41 34.56039 -117.33949 27158 ft 461 kts 53°
2026-05-05 18:41 34.57907 -117.30800 27675 ft 458 kts 52°
2026-05-05 18:41 34.59762 -117.27665 28177 ft 457 kts 53°
2026-05-05 18:42 34.61611 -117.24535 28561 ft 457 kts 53°
2026-05-05 18:42 34.62838 -117.22456 28821 ft 457 kts 53°
2026-05-05 18:42 34.64686 -117.19324 28998 ft 458 kts 52°
2026-05-05 18:42 34.66549 -117.16170 28933 ft 461 kts 53°
2026-05-05 18:43 34.70294 -117.09816 28956 ft 463 kts 53°
2026-05-05 18:43 34.74637 -117.02431 28949 ft 461 kts 53°
2026-05-05 18:44 34.77757 -116.97114 28959 ft 461 kts 53°
2026-05-05 18:44 34.81472 -116.90771 28977 ft 460 kts 53°
2026-05-05 18:45 34.85173 -116.84440 28969 ft 457 kts 54°
2026-05-05 18:45 34.88862 -116.78128 28974 ft 458 kts 53°
2026-05-05 18:46 34.92559 -116.71781 28981 ft 460 kts 54°
2026-05-05 18:46 34.96198 -116.65355 28959 ft 461 kts 54°
2026-05-05 18:47 34.99822 -116.58890 28941 ft 462 kts 55°
2026-05-05 18:47 35.03451 -116.52429 28930 ft 461 kts 55°
2026-05-05 18:48 35.07078 -116.45972 28913 ft 461 kts 55°
2026-05-05 18:48 35.10750 -116.39572 28871 ft 460 kts 51°
2026-05-05 18:49 35.12883 -116.36635 28085 ft 464 kts 45°
2026-05-05 18:49 35.15136 -116.33847 27310 ft 460 kts 44°
2026-05-05 18:49 35.17387 -116.31080 26468 ft 459 kts 45°
2026-05-05 18:49 35.19609 -116.28278 25558 ft 459 kts 45°
2026-05-05 18:50 35.21802 -116.25454 24721 ft 458 kts 46°
2026-05-05 18:50 35.23952 -116.22623 24124 ft 450 kts 47°
2026-05-05 18:50 35.26024 -116.19779 23499 ft 445 kts 48°
2026-05-05 18:50 35.28056 -116.16956 22767 ft 440 kts 48°
2026-05-05 18:51 35.30073 -116.14169 22089 ft 434 kts 47°
2026-05-05 18:51 35.32070 -116.11425 21441 ft 429 kts 47°
2026-05-05 18:51 35.34046 -116.08714 20778 ft 425 kts 47°
2026-05-05 18:51 35.36005 -116.06026 20128 ft 421 kts 47°
2026-05-05 18:52 35.37944 -116.03362 19497 ft 417 kts 48°
2026-05-05 18:52 35.39865 -116.00721 18888 ft 414 kts 48°
2026-05-05 18:52 35.41746 -115.98131 18280 ft 411 kts 48°
2026-05-05 18:52 35.43639 -115.95521 17572 ft 408 kts 48°
2026-05-05 18:53 35.45513 -115.92936 17110 ft 401 kts 47°
2026-05-05 18:53 35.47329 -115.90429 16953 ft 386 kts 48°
2026-05-05 18:53 35.49083 -115.88006 16786 ft 373 kts 48°
2026-05-05 18:53 35.50780 -115.85661 16626 ft 362 kts 48°
2026-05-05 18:54 35.52424 -115.83386 16480 ft 351 kts 48°
2026-05-05 18:54 35.54017 -115.81182 16333 ft 340 kts 48°
2026-05-05 18:54 35.55567 -115.79036 16197 ft 331 kts 48°
2026-05-05 18:54 35.57072 -115.76949 16061 ft 322 kts 48°
2026-05-05 18:55 35.58538 -115.74918 15928 ft 314 kts 48°
2026-05-05 18:55 35.59974 -115.72943 15787 ft 307 kts 47°
2026-05-05 18:55 35.61405 -115.71011 15627 ft 304 kts 47°
2026-05-05 18:55 35.62831 -115.69093 15503 ft 306 kts 47°
2026-05-05 18:56 35.64280 -115.67143 15358 ft 312 kts 47°
2026-05-05 18:56 35.65750 -115.65160 15196 ft 315 kts 47°
2026-05-05 18:56 35.67219 -115.63175 15039 ft 313 kts 47°
2026-05-05 18:56 35.68680 -115.61201 14872 ft 311 kts 48°
2026-05-05 18:57 35.70131 -115.59236 14722 ft 310 kts 48°
2026-05-05 18:57 35.71577 -115.57278 14557 ft 308 kts 48°
2026-05-05 18:57 35.73075 -115.55401 14394 ft 307 kts 38°
2026-05-05 18:57 35.74878 -115.54001 14251 ft 306 kts 29°
2026-05-05 18:58 35.76739 -115.52738 14096 ft 306 kts 29°
2026-05-05 18:58 35.78602 -115.51476 13938 ft 306 kts 29°
2026-05-05 18:58 35.80464 -115.50202 13789 ft 306 kts 29°
2026-05-05 18:58 35.82324 -115.48914 13621 ft 307 kts 30°
2026-05-05 18:59 35.84183 -115.47619 13451 ft 307 kts 30°
2026-05-05 18:59 35.86041 -115.46318 13289 ft 307 kts 30°
2026-05-05 18:59 35.87897 -115.45015 13124 ft 307 kts 30°
2026-05-05 18:59 35.89751 -115.43713 12981 ft 306 kts 30°
2026-05-05 19:00 35.91609 -115.42409 12698 ft 310 kts 30°
2026-05-05 19:00 35.93492 -115.41095 12347 ft 311 kts 30°
2026-05-05 19:00 35.95374 -115.39784 11992 ft 309 kts 30°
2026-05-05 19:00 35.97226 -115.38492 11636 ft 302 kts 30°
2026-05-05 19:01 35.99026 -115.37234 11298 ft 293 kts 30°
2026-05-05 19:01 36.00561 -115.35651 10951 ft 288 kts 55°
2026-05-05 19:01 36.01351 -115.33425 10783 ft 283 kts 77°
2026-05-05 19:01 36.01486 -115.30990 10595 ft 287 kts 92°
2026-05-05 19:02 36.01362 -115.28502 10405 ft 293 kts 94°
2026-05-05 19:02 36.01211 -115.25994 10187 ft 291 kts 94°
2026-05-05 19:02 36.01067 -115.23549 9961 ft 280 kts 94°
2026-05-05 19:02 36.00935 -115.21193 9755 ft 270 kts 94°
2026-05-05 19:03 36.00816 -115.18923 9557 ft 260 kts 94°
2026-05-05 19:03 36.00704 -115.16733 9367 ft 251 kts 94°
2026-05-05 19:03 36.00597 -115.14632 9223 ft 239 kts 94°
2026-05-05 19:03 36.00496 -115.12629 9063 ft 228 kts 94°
2026-05-05 19:04 36.00399 -115.10719 8874 ft 218 kts 94°
2026-05-05 19:04 36.00308 -115.08911 8684 ft 203 kts 94°
2026-05-05 19:04 36.00221 -115.07209 8493 ft 197 kts 94°
2026-05-05 19:04 36.00135 -115.05526 8331 ft 196 kts 94°
2026-05-05 19:05 36.00050 -115.03867 8168 ft 196 kts 94°
2026-05-05 19:05 35.99963 -115.02181 7988 ft 197 kts 95°
2026-05-05 19:05 35.99899 -115.00487 7755 ft 197 kts 92°
2026-05-05 19:05 35.99890 -114.98806 7460 ft 195 kts 92°
2026-05-05 19:06 35.99886 -114.97146 7223 ft 193 kts 93°
2026-05-05 19:06 35.99880 -114.95491 6991 ft 193 kts 91°
2026-05-05 19:06 35.99879 -114.93839 6751 ft 193 kts 93°
2026-05-05 19:06 36.00209 -114.92251 6480 ft 196 kts 53°
2026-05-05 19:07 36.01273 -114.91227 6294 ft 196 kts 31°
2026-05-05 19:07 36.02469 -114.90363 6029 ft 201 kts 28°
2026-05-05 19:07 36.03802 -114.89936 5737 ft 200 kts 353°
2026-05-05 19:07 36.05088 -114.90483 5507 ft 195 kts 329°
2026-05-05 19:08 36.06246 -114.91342 5246 ft 194 kts 323°
2026-05-05 19:08 36.07027 -114.92624 4980 ft 186 kts 281°
2026-05-05 19:08 36.07198 -114.94186 4784 ft 182 kts 275°
2026-05-05 19:08 36.07336 -114.95744 4529 ft 183 kts 272°
2026-05-05 19:09 36.07386 -114.97324 4341 ft 185 kts 269°
2026-05-05 19:09 36.07390 -114.98921 4078 ft 185 kts 268°
2026-05-05 19:09 36.07387 -115.00495 3850 ft 181 kts 268°
2026-05-05 19:09 36.07384 -115.02069 3750 ft 185 kts 268°
2026-05-05 19:10 36.07380 -115.03634 3531 ft 176 kts 269°
2026-05-05 19:10 36.07376 -115.05091 3327 ft 164 kts 269°
2026-05-05 19:10 36.07374 -115.06451 3115 ft 157 kts 268°
2026-05-05 19:10 36.07372 -115.07793 2900 ft 157 kts 267°
2026-05-05 19:11 36.07371 -115.09149 2704 ft 159 kts 268°
2026-05-05 19:11 36.07368 -115.10516 2473 ft 158 kts 269°
2026-05-05 19:11 36.07373 -115.11867 2234 ft 158 kts 268°
2026-05-05 19:11 36.07370 -115.13212 2079 ft 152 kts 269°
2026-05-05 19:12 36.07366 -115.14413 2089 ft 127 kts 273°
2026-05-05 19:12 36.07368 -115.15189 2099 ft 13 kts 273°
2026-05-05 19:12 36.07387 -115.15310 2104 ft 15 kts 289°
2026-05-05 19:12 36.07427 -115.15422 2105 ft 11 kts 300°
2026-05-05 19:13 36.07450 -115.15471 2105 ft 0 kts 301°
2026-05-05 19:14 36.07456 -115.15484 2105 ft 4 kts 300°
2026-05-05 19:15 36.07470 -115.15513 2106 ft 6 kts 300°
2026-05-05 19:15 36.07499 -115.15570 2108 ft 9 kts 305°
2026-05-05 19:15 36.07574 -115.15667 2115 ft 19 kts 315°
2026-05-05 19:15 36.07666 -115.15778 2120 ft 18 kts 317°
2026-05-05 19:16 36.07779 -115.15828 2113 ft 19 kts 358°
2026-05-05 19:16 36.07880 -115.15825 2109 ft 1 kts 12°
2026-05-05 19:16 36.07887 -115.15810 2110 ft 5 kts 72°
2026-05-05 19:16 36.07883 -115.15736 2106 ft 13 kts 96°
2026-05-05 19:17 36.07879 -115.15613 2102 ft 15 kts 91°
2026-05-05 19:17 36.07879 -115.15484 2099 ft 15 kts 89°
2026-05-05 19:17 36.07878 -115.15361 2098 ft 14 kts 90°
2026-05-05 19:17 36.07878 -115.15235 2098 ft 15 kts 90°
2026-05-05 19:18 36.07878 -115.15109 2098 ft 14 kts 90°
2026-05-05 19:18 36.07872 -115.14989 2097 ft 14 kts 95°
2026-05-05 19:18 36.07864 -115.14875 2097 ft 13 kts 95°
2026-05-05 19:18 36.07857 -115.14764 2096 ft 13 kts 95°
2026-05-05 19:19 36.07850 -115.14657 2096 ft 12 kts 95°
2026-05-05 19:19 36.07842 -115.14552 2095 ft 12 kts 95°
2026-05-05 19:19 36.07835 -115.14450 2095 ft 12 kts 95°
2026-05-05 19:19 36.07829 -115.14350 2095 ft 11 kts 92°
2026-05-05 19:20 36.07828 -115.14248 2094 ft 14 kts 90°
2026-05-05 19:20 36.07828 -115.14112 2093 ft 16 kts 89°
2026-05-05 19:20 36.07851 -115.13994 2092 ft 14 kts 51°
2026-05-05 19:20 36.07929 -115.13950 2092 ft 11 kts 353°
2026-05-05 19:21 36.07974 -115.13957 2092 ft 3 kts 353°
2026-05-05 19:21 36.07988 -115.13959 2092 ft 0 kts 353°
2026-05-05 19:21 36.07989 -115.13959 2092 ft 1 kts 353°
2026-05-05 19:21 36.07993 -115.13960 2092 ft 1 kts 352°